Luke Air Force Base Glendale US
ICAO: KLUF
IATA: LUF
Category: Large
Scheduled Services: No

Elevation: 1085 ft
TransAlt. 18000 ft.

Airport Communications:
APP/DEP:120.7
ATIS:134.925
CLNC DEL:126.25
GND:133.175
PMSV METRO:26.74
COMD POST:34.94
PTD:37.22
TWR:119.1

KLUF Zoom In..

If you have problems with the map follow the link
https://www.worldairports.se/pages/airport.php?
ICAO=KLUF

Runways:

(A) RW 03L length 10012 ft width 150 ft
---- / hdg 30

(B) RW 03R length 9904 ft width 150 ft
ILS 108.70 / hdg 30

(C) RW 21L length 9904 ft width 150 ft
ILS 110.90 / hdg 210

(D) RW 21R length 10012 ft width 150 ft
---- / hdg 210

Location; KLUF
Day. 22 / Time. 16.58 Zulu
* Altimeter: 29.85
* Temperature: 05° c. 41°f.
* Wind from: 000° Speed 00 kn.
Dewpoint: 05° c.
Visibility: 10 Statute Miles.
Clouds: Few 700 ft.
Clouds: Broken 1600 ft.
Clouds: Overcast 3200 ft.

KLUF 221658Z 00000KT 10SM FEW007 BKN016 OVC032 05/05 A2985 RMK AO2A RAE00DZB00E02DZB04E09RAB09E27DZB27E47 CIG 007 RWY03 SLP112 P0000 T00530053 $


Wind - Calm.

 
 
jpsmedia.com for Web Design worldairports.se 2019   terms of use